Time,TemperatureF,DewpointF,PressureIn,WindDirection,WindDirectionDegrees,WindSpeedMPH,WindSpeedGustMPH,Humidity,HourlyPrecipIn,Conditions,Clouds,dailyrainin,SoftwareType,DateUTC
2013-11-24 00:05:00,30.6,21.6,30.32,SSE,163,3.0,5.0,69,0.00,,,0.00,Wunderground v.1.15,2013-11-24 05:05:00,
2013-11-24 00:10:00,30.5,21.2,30.32,SE,137,3.0,5.0,68,0.00,,,0.00,Wunderground v.1.15,2013-11-24 05:10:00,
2013-11-24 00:15:00,30.3,21.0,30.32,SSW,193,3.0,6.0,68,0.00,,,0.00,Wunderground v.1.15,2013-11-24 05:15:00,
2013-11-24 00:20:00,30.2,20.2,30.33,SSE,150,4.0,6.0,66,0.00,,,0.00,Wunderground v.1.15,2013-11-24 05:20:00,
2013-11-24 00:25:00,30.1,20.1,30.32,East,84,4.0,5.0,66,0.00,,,0.00,Wunderground v.1.15,2013-11-24 05:25:00,
2013-11-24 00:30:00,30.0,20.4,30.33,SSW,192,3.0,8.0,67,0.00,,,0.00,Wunderground v.1.15,2013-11-24 05:30:00,
2013-11-24 00:35:00,29.9,19.9,30.32,South,178,3.0,10.0,66,0.00,,,0.00,Wunderground v.1.15,2013-11-24 05:35:00,
2013-11-24 00:45:00,29.6,20.0,30.32,SSE,166,3.0,3.0,67,0.00,,,0.00,Wunderground v.1.15,2013-11-24 05:45:00,
2013-11-24 00:55:00,29.3,19.7,30.32,SSE,155,2.0,2.0,67,0.00,,,0.00,Wunderground v.1.15,2013-11-24 05:55:00,
2013-11-24 01:05:00,29.0,19.8,30.32,SSE,164,3.0,5.0,68,0.00,,,0.00,Wunderground v.1.15,2013-11-24 06:05:00,
2013-11-24 01:10:00,28.8,19.6,30.32,SSW,209,3.0,6.0,68,0.00,,,0.00,Wunderground v.1.15,2013-11-24 06:10:00,
2013-11-24 01:15:00,28.7,19.5,30.32,South,181,3.0,5.0,68,0.00,,,0.00,Wunderground v.1.15,2013-11-24 06:15:00,
2013-11-24 01:20:00,28.5,19.3,30.33,ESE,123,3.0,5.0,68,0.00,,,0.00,Wunderground v.1.15,2013-11-24 06:20:00,
2013-11-24 01:25:00,28.3,19.4,30.32,SSE,155,3.0,3.0,69,0.00,,,0.00,Wunderground v.1.15,2013-11-24 06:25:00,
2013-11-24 01:30:00,28.0,19.5,30.32,West,267,3.0,5.0,70,0.00,,,0.00,Wunderground v.1.15,2013-11-24 06:30:00,
2013-11-24 01:35:00,27.8,19.6,30.33,ESE,109,3.0,3.0,71,0.00,,,0.00,Wunderground v.1.15,2013-11-24 06:35:00,
2013-11-24 01:45:00,27.4,19.2,30.33,SE,140,3.0,5.0,71,0.00,,,0.00,Wunderground v.1.15,2013-11-24 06:45:00,
2013-11-24 01:50:00,27.2,19.4,30.33,SSW,194,3.0,5.0,72,0.00,,,0.00,Wunderground v.1.15,2013-11-24 06:50:00,
2013-11-24 01:55:00,27.0,19.5,30.33,SE,125,3.0,3.0,73,0.00,,,0.00,Wunderground v.1.15,2013-11-24 06:55:00,
2013-11-24 02:05:00,26.5,19.3,30.34,SE,146,4.0,6.0,74,0.00,,,0.00,Wunderground v.1.15,2013-11-24 07:05:00,
2013-11-24 02:10:00,26.2,19.4,30.34,ESE,121,4.0,7.0,75,0.00,,,0.00,Wunderground v.1.15,2013-11-24 07:10:00,
2013-11-24 02:15:00,26.0,19.2,30.35,South,171,4.0,6.0,75,0.00,,,0.00,Wunderground v.1.15,2013-11-24 07:15:00,
2013-11-24 02:20:00,25.8,19.0,30.35,SSE,150,4.0,6.0,75,0.00,,,0.00,Wunderground v.1.15,2013-11-24 07:20:00,
2013-11-24 02:25:00,25.6,18.8,30.35,South,190,4.0,7.0,75,0.00,,,0.00,Wunderground v.1.15,2013-11-24 07:25:00,
2013-11-24 02:30:00,25.4,18.6,30.35,South,171,4.0,7.0,75,0.00,,,0.00,Wunderground v.1.15,2013-11-24 07:30:00,
2013-11-24 02:35:00,25.2,18.4,30.35,SSE,165,4.0,9.0,75,0.00,,,0.00,Wunderground v.1.15,2013-11-24 07:35:00,
2013-11-24 02:40:00,25.0,18.2,30.35,SE,140,4.0,9.0,75,0.00,,,0.00,Wunderground v.1.15,2013-11-24 07:40:00,
2013-11-24 02:45:00,24.8,18.0,30.35,SE,134,4.0,4.0,75,0.00,,,0.00,Wunderground v.1.15,2013-11-24 07:45:00,
2013-11-24 02:50:00,24.6,17.5,30.35,SSE,155,4.0,6.0,74,0.00,,,0.00,Wunderground v.1.15,2013-11-24 07:50:00,
2013-11-24 02:55:00,24.5,17.4,30.35,SSW,196,4.0,6.0,74,0.00,,,0.00,Wunderground v.1.15,2013-11-24 07:55:00,
2013-11-24 03:05:00,24.2,17.1,30.35,SSE,155,3.0,7.0,74,0.00,,,0.00,Wunderground v.1.15,2013-11-24 08:05:00,
2013-11-24 03:10:00,24.1,16.7,30.35,South,169,4.0,7.0,73,0.00,,,0.00,Wunderground v.1.15,2013-11-24 08:10:00,
2013-11-24 03:15:00,23.9,16.8,30.35,SE,146,5.0,5.0,74,0.00,,,0.00,Wunderground v.1.15,2013-11-24 08:15:00,
2013-11-24 03:20:00,23.8,16.7,30.35,South,175,4.0,9.0,74,0.00,,,0.00,Wunderground v.1.15,2013-11-24 08:20:00,
2013-11-24 03:25:00,23.7,16.6,30.34,SSE,155,5.0,6.0,74,0.00,,,0.00,Wunderground v.1.15,2013-11-24 08:25:00,
2013-11-24 03:30:00,23.5,16.1,30.34,NNE,33,5.0,6.0,73,0.00,,,0.00,Wunderground v.1.15,2013-11-24 08:30:00,
2013-11-24 03:35:00,23.4,16.3,30.35,ENE,68,4.0,4.0,74,0.00,,,0.00,Wunderground v.1.15,2013-11-24 08:35:00,
2013-11-24 03:40:00,23.3,16.2,30.35,South,175,3.0,5.0,74,0.00,,,0.00,Wunderground v.1.15,2013-11-24 08:40:00,
2013-11-24 03:45:00,23.2,16.1,30.35,South,172,4.0,4.0,74,0.00,,,0.00,Wunderground v.1.15,2013-11-24 08:45:00,
2013-11-24 03:50:00,23.1,16.0,30.35,SSE,159,4.0,5.0,74,0.00,,,0.00,Wunderground v.1.15,2013-11-24 08:50:00,
2013-11-24 03:55:00,22.9,15.8,30.36,ESE,109,4.0,4.0,74,0.00,,,0.00,Wunderground v.1.15,2013-11-24 08:55:00,
2013-11-24 04:05:00,22.7,15.7,30.36,ESE,123,3.0,3.0,74,0.00,,,0.00,Wunderground v.1.15,2013-11-24 09:05:00,
2013-11-24 04:10:00,22.6,15.6,30.37,SSE,157,2.0,5.0,74,0.00,,,0.00,Wunderground v.1.15,2013-11-24 09:10:00,
2013-11-24 04:15:00,22.5,15.5,30.38,SSE,159,3.0,5.0,74,0.00,,,0.00,Wunderground v.1.15,2013-11-24 09:15:00,
2013-11-24 04:20:00,22.4,15.7,30.37,SE,144,3.0,6.0,75,0.00,,,0.00,Wunderground v.1.15,2013-11-24 09:20:00,
2013-11-24 04:25:00,22.4,15.7,30.38,ESE,121,4.0,4.0,75,0.00,,,0.00,Wunderground v.1.15,2013-11-24 09:25:00,
2013-11-24 04:35:00,22.2,15.2,30.38,South,188,3.0,5.0,74,0.00,,,0.00,Wunderground v.1.15,2013-11-24 09:35:00,
2013-11-24 04:40:00,22.2,15.5,30.39,ESE,107,4.0,7.0,75,0.00,,,0.00,Wunderground v.1.15,2013-11-24 09:40:00,
2013-11-24 04:45:00,22.1,15.1,30.39,SSE,159,4.0,5.0,74,0.00,,,0.00,Wunderground v.1.15,2013-11-24 09:45:00,
2013-11-24 04:50:00,22.0,15.3,30.39,SSE,156,4.0,5.0,75,0.00,,,0.00,Wunderground v.1.15,2013-11-24 09:50:00,
2013-11-24 04:55:00,22.0,15.0,30.40,SE,133,4.0,8.0,74,0.00,,,0.00,Wunderground v.1.15,2013-11-24 09:55:00,
2013-11-24 05:05:00,21.8,15.1,30.41,ESE,111,3.0,5.0,75,0.00,,,0.00,Wunderground v.1.15,2013-11-24 10:05:00,
2013-11-24 05:10:00,21.7,15.0,30.41,ENE,57,3.0,5.0,75,0.00,,,0.00,Wunderground v.1.15,2013-11-24 10:10:00,
2013-11-24 05:15:00,21.7,14.7,30.41,SSE,157,2.0,5.0,74,0.00,,,0.00,Wunderground v.1.15,2013-11-24 10:15:00,
2013-11-24 05:20:00,21.6,14.6,30.42,SSW,205,3.0,5.0,74,0.00,,,0.00,Wunderground v.1.15,2013-11-24 10:20:00,
2013-11-24 05:25:00,21.5,14.5,30.41,ESE,109,4.0,5.0,74,0.00,,,0.00,Wunderground v.1.15,2013-11-24 10:25:00,
2013-11-24 05:35:00,21.3,14.6,30.41,South,182,4.0,4.0,75,0.00,,,0.00,Wunderground v.1.15,2013-11-24 10:35:00,
2013-11-24 05:40:00,21.2,14.2,30.42,SE,138,4.0,5.0,74,0.00,,,0.00,Wunderground v.1.15,2013-11-24 10:40:00,
2013-11-24 05:45:00,21.1,14.1,30.42,SSE,165,4.0,6.0,74,0.00,,,0.00,Wunderground v.1.15,2013-11-24 10:45:00,
2013-11-24 05:50:00,21.0,14.0,30.42,SSE,157,4.0,6.0,74,0.00,,,0.00,Wunderground v.1.15,2013-11-24 10:50:00,
2013-11-24 05:55:00,21.0,14.0,30.42,South,169,4.0,5.0,74,0.00,,,0.00,Wunderground v.1.15,2013-11-24 10:55:00,
2013-11-24 06:05:00,20.9,13.9,30.42,SW,221,4.0,5.0,74,0.00,,,0.00,Wunderground v.1.15,2013-11-24 11:05:00,
2013-11-24 06:10:00,20.8,13.8,30.43,SSW,202,4.0,7.0,74,0.00,,,0.00,Wunderground v.1.15,2013-11-24 11:10:00,
2013-11-24 06:15:00,20.8,13.5,30.43,ESE,110,4.0,4.0,73,0.00,,,0.00,Wunderground v.1.15,2013-11-24 11:15:00,
2013-11-24 06:20:00,20.7,13.4,30.43,SSE,156,5.0,5.0,73,0.00,,,0.00,Wunderground v.1.15,2013-11-24 11:20:00,
2013-11-24 06:25:00,20.7,13.4,30.44,SSE,161,4.0,5.0,73,0.00,,,0.00,Wunderground v.1.15,2013-11-24 11:25:00,
2013-11-24 06:30:00,20.6,13.3,30.44,South,169,4.0,5.0,73,0.00,,,0.00,Wunderground v.1.15,2013-11-24 11:30:00,
2013-11-24 06:35:00,20.6,13.3,30.44,SSW,198,5.0,5.0,73,0.00,,,0.00,Wunderground v.1.15,2013-11-24 11:35:00,
2013-11-24 06:40:00,20.6,13.3,30.44,South,178,5.0,5.0,73,0.00,,,0.00,Wunderground v.1.15,2013-11-24 11:40:00,
2013-11-24 06:50:00,20.5,13.5,30.45,SSE,165,4.0,7.0,74,0.00,,,0.00,Wunderground v.1.15,2013-11-24 11:50:00,
2013-11-24 06:55:00,20.4,13.4,30.46,South,171,5.0,5.0,74,0.00,,,0.00,Wunderground v.1.15,2013-11-24 11:55:00,
2013-11-24 07:05:00,20.3,13.6,30.46,South,176,5.0,5.0,75,0.00,,,0.00,Wunderground v.1.15,2013-11-24 12:05:00,
2013-11-24 07:10:00,20.1,13.4,30.46,SSW,212,4.0,5.0,75,0.00,,,0.00,Wunderground v.1.15,2013-11-24 12:10:00,
2013-11-24 07:15:00,20.1,13.4,30.46,South,169,4.0,5.0,75,0.00,,,0.00,Wunderground v.1.15,2013-11-24 12:15:00,
2013-11-24 07:20:00,20.0,13.3,30.47,East,87,4.0,5.0,75,0.00,,,0.00,Wunderground v.1.15,2013-11-24 12:20:00,
2013-11-24 07:25:00,19.9,13.6,30.48,SSE,157,4.0,5.0,76,0.00,,,0.00,Wunderground v.1.15,2013-11-24 12:25:00,
2013-11-24 07:30:00,19.8,13.5,30.47,SSE,163,4.0,5.0,76,0.00,,,0.00,Wunderground v.1.15,2013-11-24 12:30:00,
2013-11-24 07:35:00,19.8,13.8,30.47,SSE,154,4.0,7.0,77,0.00,,,0.00,Wunderground v.1.15,2013-11-24 12:35:00,
2013-11-24 07:40:00,19.7,13.7,30.48,South,175,4.0,7.0,77,0.00,,,0.00,Wunderground v.1.15,2013-11-24 12:40:00,
2013-11-24 07:45:00,19.7,13.7,30.48,ESE,118,4.0,4.0,77,0.00,,,0.00,Wunderground v.1.15,2013-11-24 12:45:00,
2013-11-24 07:50:00,19.8,13.5,30.49,NW,312,4.0,5.0,76,0.00,,,0.00,Wunderground v.1.15,2013-11-24 12:50:00,
2013-11-24 07:55:00,19.8,13.5,30.49,SSE,149,3.0,5.0,76,0.00,,,0.00,Wunderground v.1.15,2013-11-24 12:55:00,
2013-11-24 08:05:00,19.9,13.6,30.50,SSW,193,4.0,4.0,76,0.00,,,0.00,Wunderground v.1.15,2013-11-24 13:05:00,
2013-11-24 08:10:00,19.9,13.6,30.50,SW,222,4.0,7.0,76,0.00,,,0.00,Wunderground v.1.15,2013-11-24 13:10:00,
2013-11-24 08:15:00,20.0,13.3,30.51,ESE,118,4.0,4.0,75,0.00,,,0.00,Wunderground v.1.15,2013-11-24 13:15:00,
2013-11-24 08:20:00,20.1,13.4,30.51,South,180,4.0,5.0,75,0.00,,,0.00,Wunderground v.1.15,2013-11-24 13:20:00,
2013-11-24 08:25:00,20.2,13.2,30.51,South,175,4.0,7.0,74,0.00,,,0.00,Wunderground v.1.15,2013-11-24 13:25:00,
2013-11-24 08:30:00,20.2,13.2,30.51,SSW,199,4.0,8.0,74,0.00,,,0.00,Wunderground v.1.15,2013-11-24 13:30:00,
2013-11-24 08:35:00,20.4,12.8,30.51,South,187,5.0,5.0,72,0.00,,,0.00,Wunderground v.1.15,2013-11-24 13:35:00,
2013-11-24 08:40:00,20.5,12.6,30.52,SSW,194,4.0,5.0,71,0.00,,,0.00,Wunderground v.1.15,2013-11-24 13:40:00,
2013-11-24 08:45:00,20.7,12.8,30.52,South,177,3.0,7.0,71,0.00,,,0.00,Wunderground v.1.15,2013-11-24 13:45:00,
2013-11-24 08:50:00,20.8,12.9,30.52,South,186,4.0,7.0,71,0.00,,,0.00,Wunderground v.1.15,2013-11-24 13:50:00,
2013-11-24 08:55:00,20.8,12.6,30.53,South,182,4.0,5.0,70,0.00,,,0.00,Wunderground v.1.15,2013-11-24 13:55:00,
2013-11-24 09:05:00,21.1,12.2,30.53,SSE,167,5.0,5.0,68,0.00,,,0.00,Wunderground v.1.15,2013-11-24 14:05:00,
2013-11-24 09:15:00,21.6,12.0,30.54,SW,236,4.0,4.0,66,0.00,,,0.00,Wunderground v.1.15,2013-11-24 14:15:00,
2013-11-24 09:20:00,21.9,12.3,30.54,SSE,165,3.0,5.0,66,0.00,,,0.00,Wunderground v.1.15,2013-11-24 14:20:00,
2013-11-24 09:25:00,22.2,12.2,30.55,South,171,4.0,4.0,65,0.00,,,0.00,Wunderground v.1.15,2013-11-24 14:25:00,
2013-11-24 09:30:00,22.6,11.9,30.55,East,94,4.0,5.0,63,0.00,,,0.00,Wunderground v.1.15,2013-11-24 14:30:00,
2013-11-24 09:35:00,22.9,11.8,30.56,SE,144,3.0,5.0,62,0.00,,,0.00,Wunderground v.1.15,2013-11-24 14:35:00,
2013-11-24 09:40:00,23.3,11.4,30.56,SSE,150,4.0,5.0,60,0.00,,,0.00,Wunderground v.1.15,2013-11-24 14:40:00,
2013-11-24 09:45:00,23.1,10.9,30.56,SSW,193,4.0,5.0,59,0.00,,,0.00,Wunderground v.1.15,2013-11-24 14:45:00,
2013-11-24 09:50:00,23.0,10.8,30.56,SSE,159,4.0,7.0,59,0.00,,,0.00,Wunderground v.1.15,2013-11-24 14:50:00,
2013-11-24 09:55:00,23.3,11.1,30.55,SSE,153,4.0,6.0,59,0.00,,,0.00,Wunderground v.1.15,2013-11-24 14:55:00,
2013-11-24 10:05:00,24.0,10.6,30.56,East,86,4.0,4.0,56,0.00,,,0.00,Wunderground v.1.15,2013-11-24 15:05:00,
2013-11-24 10:10:00,24.2,9.9,30.57,South,173,4.0,5.0,54,0.00,,,0.00,Wunderground v.1.15,2013-11-24 15:10:00,
2013-11-24 10:15:00,24.3,10.0,30.57,SSW,213,4.0,5.0,54,0.00,,,0.00,Wunderground v.1.15,2013-11-24 15:15:00,
2013-11-24 10:20:00,24.5,9.4,30.57,SE,145,4.0,5.0,52,0.00,,,0.00,Wunderground v.1.15,2013-11-24 15:20:00,
2013-11-24 10:25:00,25.1,9.5,30.57,SSE,159,4.0,5.0,51,0.00,,,0.00,Wunderground v.1.15,2013-11-24 15:25:00,
2013-11-24 10:30:00,25.2,8.7,30.57,South,191,4.0,5.0,49,0.00,,,0.00,Wunderground v.1.15,2013-11-24 15:30:00,
2013-11-24 10:35:00,25.3,8.8,30.58,South,184,4.0,4.0,49,0.00,,,0.00,Wunderground v.1.15,2013-11-24 15:35:00,
2013-11-24 10:40:00,25.8,9.2,30.58,South,172,4.0,5.0,49,0.00,,,0.00,Wunderground v.1.15,2013-11-24 15:40:00,
2013-11-24 10:45:00,26.1,8.1,30.58,South,169,4.0,6.0,46,0.00,,,0.00,Wunderground v.1.15,2013-11-24 15:45:00,
2013-11-24 10:50:00,26.6,8.6,30.58,SSE,165,4.0,6.0,46,0.00,,,0.00,Wunderground v.1.15,2013-11-24 15:50:00,
2013-11-24 10:55:00,26.9,7.4,30.57,SSW,204,4.0,4.0,43,0.00,,,0.00,Wunderground v.1.15,2013-11-24 15:55:00,
2013-11-24 11:05:00,27.4,7.8,30.58,ESE,105,3.0,7.0,43,0.00,,,0.00,Wunderground v.1.15,2013-11-24 16:05:00,
2013-11-24 11:10:00,27.6,7.5,30.57,SSE,157,3.0,7.0,42,0.00,,,0.00,Wunderground v.1.15,2013-11-24 16:10:00,
2013-11-24 11:15:00,28.0,7.3,30.57,South,186,3.0,6.0,41,0.00,,,0.00,Wunderground v.1.15,2013-11-24 16:15:00,
2013-11-24 11:20:00,28.1,6.8,30.57,SSW,194,4.0,6.0,40,0.00,,,0.00,Wunderground v.1.15,2013-11-24 16:20:00,
2013-11-24 11:25:00,28.3,6.5,30.57,South,170,4.0,5.0,39,0.00,,,0.00,Wunderground v.1.15,2013-11-24 16:25:00,
2013-11-24 11:30:00,28.3,5.9,30.57,SW,229,4.0,5.0,38,0.00,,,0.00,Wunderground v.1.15,2013-11-24 16:30:00,
2013-11-24 11:35:00,28.6,6.7,30.57,SSE,152,4.0,6.0,39,0.00,,,0.00,Wunderground v.1.15,2013-11-24 16:35:00,
2013-11-24 11:40:00,29.0,6.5,30.57,SE,139,4.0,6.0,38,0.00,,,0.00,Wunderground v.1.15,2013-11-24 16:40:00,
2013-11-24 11:50:00,29.3,5.6,30.57,South,180,4.0,5.0,36,0.00,,,0.00,Wunderground v.1.15,2013-11-24 16:50:00,
2013-11-24 11:55:00,29.6,5.9,30.57,SSE,166,4.0,4.0,36,0.00,,,0.00,Wunderground v.1.15,2013-11-24 16:55:00,
2013-11-24 12:05:00,30.2,7.0,30.57,SSW,198,3.0,6.0,37,0.00,,,0.00,Wunderground v.1.15,2013-11-24 17:05:00,
2013-11-24 12:10:00,30.3,6.5,30.56,NNE,12,4.0,6.0,36,0.00,,,0.00,Wunderground v.1.15,2013-11-24 17:10:00,
2013-11-24 12:15:00,30.5,6.7,30.56,SSW,192,4.0,5.0,36,0.00,,,0.00,Wunderground v.1.15,2013-11-24 17:15:00,
2013-11-24 12:20:00,30.9,6.4,30.56,SW,221,4.0,6.0,35,0.00,,,0.00,Wunderground v.1.15,2013-11-24 17:20:00,
2013-11-24 12:25:00,31.2,7.3,30.56,South,175,3.0,3.0,36,0.00,,,0.00,Wunderground v.1.15,2013-11-24 17:25:00,
2013-11-24 12:30:00,31.1,6.0,30.55,SSW,198,4.0,4.0,34,0.00,,,0.00,Wunderground v.1.15,2013-11-24 17:30:00,
2013-11-24 12:35:00,31.2,6.7,30.55,SE,145,4.0,4.0,35,0.00,,,0.00,Wunderground v.1.15,2013-11-24 17:35:00,
2013-11-24 12:40:00,31.1,6.6,30.55,SSW,198,4.0,6.0,35,0.00,,,0.00,Wunderground v.1.15,2013-11-24 17:40:00,
2013-11-24 12:45:00,31.4,6.9,30.55,SSE,157,4.0,4.0,35,0.00,,,0.00,Wunderground v.1.15,2013-11-24 17:45:00,
2013-11-24 12:55:00,31.7,5.8,30.54,WSW,237,4.0,4.0,33,0.00,,,0.00,Wunderground v.1.15,2013-11-24 17:55:00,
2013-11-24 13:05:00,31.9,5.3,30.54,South,191,4.0,8.0,32,0.00,,,0.00,Wunderground v.1.15,2013-11-24 18:05:00,
2013-11-24 13:10:00,31.8,5.9,30.54,SSE,156,4.0,8.0,33,0.00,,,0.00,Wunderground v.1.15,2013-11-24 18:10:00,
2013-11-24 13:15:00,32.0,6.1,30.54,WSW,250,4.0,7.0,33,0.00,,,0.00,Wunderground v.1.15,2013-11-24 18:15:00,
2013-11-24 13:20:00,32.2,5.6,30.55,SE,144,4.0,7.0,32,0.00,,,0.00,Wunderground v.1.15,2013-11-24 18:20:00,
2013-11-24 13:25:00,32.3,5.7,30.55,South,180,4.0,5.0,32,0.00,,,0.00,Wunderground v.1.15,2013-11-24 18:25:00,
2013-11-24 13:30:00,32.6,5.9,30.54,South,172,4.0,5.0,32,0.00,,,0.00,Wunderground v.1.15,2013-11-24 18:30:00,
2013-11-24 13:35:00,32.5,5.9,30.54,SSW,200,4.0,4.0,32,0.00,,,0.00,Wunderground v.1.15,2013-11-24 18:35:00,
2013-11-24 13:40:00,32.7,5.3,30.54,SSE,158,4.0,5.0,31,0.00,,,0.00,Wunderground v.1.15,2013-11-24 18:40:00,
2013-11-24 13:45:00,32.8,5.4,30.54,South,182,4.0,4.0,31,0.00,,,0.00,Wunderground v.1.15,2013-11-24 18:45:00,
2013-11-24 13:50:00,33.0,5.6,30.54,North,5,4.0,5.0,31,0.00,,,0.00,Wunderground v.1.15,2013-11-24 18:50:00,
2013-11-24 13:55:00,33.0,5.6,30.54,South,183,3.0,5.0,31,0.00,,,0.00,Wunderground v.1.15,2013-11-24 18:55:00,
2013-11-24 14:05:00,32.8,5.4,30.54,South,181,4.0,5.0,31,0.00,,,0.00,Wunderground v.1.15,2013-11-24 19:05:00,
2013-11-24 14:10:00,33.0,5.6,30.53,SSW,206,3.0,5.0,31,0.00,,,0.00,Wunderground v.1.15,2013-11-24 19:10:00,
2013-11-24 14:15:00,33.1,5.0,30.53,South,185,3.0,5.0,30,0.00,,,0.00,Wunderground v.1.15,2013-11-24 19:15:00,
2013-11-24 14:20:00,33.2,5.8,30.53,ESE,117,3.0,5.0,31,0.00,,,0.00,Wunderground v.1.15,2013-11-24 19:20:00,
2013-11-24 14:25:00,32.9,5.5,30.53,SSE,160,3.0,5.0,31,0.00,,,0.00,Wunderground v.1.15,2013-11-24 19:25:00,
2013-11-24 14:30:00,33.0,4.9,30.53,SSE,165,3.0,5.0,30,0.00,,,0.00,Wunderground v.1.15,2013-11-24 19:30:00,
2013-11-24 14:35:00,33.2,5.1,30.53,SSE,151,3.0,5.0,30,0.00,,,0.00,Wunderground v.1.15,2013-11-24 19:35:00,
2013-11-24 14:40:00,32.9,4.8,30.53,SSW,195,3.0,6.0,30,0.00,,,0.00,Wunderground v.1.15,2013-11-24 19:40:00,
2013-11-24 14:45:00,32.4,4.4,30.53,SSE,150,4.0,5.0,30,0.00,,,0.00,Wunderground v.1.15,2013-11-24 19:45:00,
2013-11-24 14:50:00,32.1,4.1,30.53,SW,234,4.0,5.0,30,0.00,,,0.00,Wunderground v.1.15,2013-11-24 19:50:00,
2013-11-24 14:55:00,32.3,4.3,30.53,SW,221,3.0,3.0,30,0.00,,,0.00,Wunderground v.1.15,2013-11-24 19:55:00,
2013-11-24 15:05:00,33.0,4.9,30.54,NNW,334,3.0,5.0,30,0.00,,,0.00,Wunderground v.1.15,2013-11-24 20:05:00,
2013-11-24 15:10:00,33.1,5.0,30.54,NE,52,3.0,5.0,30,0.00,,,0.00,Wunderground v.1.15,2013-11-24 20:10:00,
2013-11-24 15:20:00,32.7,4.6,30.54,South,187,4.0,5.0,30,0.00,,,0.00,Wunderground v.1.15,2013-11-24 20:20:00,
2013-11-24 15:25:00,32.8,4.7,30.54,SW,220,4.0,5.0,30,0.00,,,0.00,Wunderground v.1.15,2013-11-24 20:25:00,
2013-11-24 15:30:00,32.7,4.6,30.54,South,178,3.0,5.0,30,0.00,,,0.00,Wunderground v.1.15,2013-11-24 20:30:00,
2013-11-24 15:35:00,32.7,4.6,30.54,SSE,165,4.0,4.0,30,0.00,,,0.00,Wunderground v.1.15,2013-11-24 20:35:00,
2013-11-24 15:40:00,32.7,4.6,30.54,South,190,3.0,5.0,30,0.00,,,0.00,Wunderground v.1.15,2013-11-24 20:40:00,
2013-11-24 15:45:00,32.8,4.7,30.55,SSW,205,3.0,5.0,30,0.00,,,0.00,Wunderground v.1.15,2013-11-24 20:45:00,
2013-11-24 15:50:00,32.8,5.4,30.55,South,185,3.0,5.0,31,0.00,,,0.00,Wunderground v.1.15,2013-11-24 20:50:00,
2013-11-24 15:55:00,32.8,4.7,30.55,South,190,3.0,3.0,30,0.00,,,0.00,Wunderground v.1.15,2013-11-24 20:55:00,
2013-11-24 16:05:00,32.6,5.9,30.55,SSW,207,4.0,6.0,32,0.00,,,0.00,Wunderground v.1.15,2013-11-24 21:05:00,
2013-11-24 16:10:00,32.4,5.1,30.55,South,180,5.0,6.0,31,0.00,,,0.00,Wunderground v.1.15,2013-11-24 21:10:00,
2013-11-24 16:15:00,32.4,5.1,30.56,SW,216,4.0,5.0,31,0.00,,,0.00,Wunderground v.1.15,2013-11-24 21:15:00,
2013-11-24 16:20:00,32.5,5.9,30.56,SSW,207,3.0,5.0,32,0.00,,,0.00,Wunderground v.1.15,2013-11-24 21:20:00,
2013-11-24 16:25:00,32.1,5.5,30.55,SSW,193,4.0,4.0,32,0.00,,,0.00,Wunderground v.1.15,2013-11-24 21:25:00,
2013-11-24 16:30:00,31.8,4.5,30.55,South,182,4.0,5.0,31,0.00,,,0.00,Wunderground v.1.15,2013-11-24 21:30:00,
2013-11-24 16:35:00,31.7,5.2,30.55,South,182,3.0,3.0,32,0.00,,,0.00,Wunderground v.1.15,2013-11-24 21:35:00,
2013-11-24 16:40:00,31.8,5.2,30.56,SSW,192,2.0,4.0,32,0.00,,,0.00,Wunderground v.1.15,2013-11-24 21:40:00,
2013-11-24 16:45:00,31.9,6.0,30.56,SSW,192,2.0,5.0,33,0.00,,,0.00,Wunderground v.1.15,2013-11-24 21:45:00,
2013-11-24 16:50:00,31.8,5.2,30.56,SW,228,2.0,5.0,32,0.00,,,0.00,Wunderground v.1.15,2013-11-24 21:50:00,
2013-11-24 16:55:00,31.7,5.2,30.56,SSE,155,2.0,5.0,32,0.00,,,0.00,Wunderground v.1.15,2013-11-24 21:55:00,
2013-11-24 17:05:00,31.0,5.2,30.56,SW,219,2.0,2.0,33,0.00,,,0.00,Wunderground v.1.15,2013-11-24 22:05:00,
2013-11-24 17:10:00,30.6,5.5,30.56,South,180,1.0,3.0,34,0.00,,,0.00,Wunderground v.1.15,2013-11-24 22:10:00,
2013-11-24 17:15:00,30.1,5.1,30.57,South,181,1.0,5.0,34,0.00,,,0.00,Wunderground v.1.15,2013-11-24 22:15:00,
2013-11-24 17:20:00,29.7,5.3,30.57,SSE,161,2.0,5.0,35,0.00,,,0.00,Wunderground v.1.15,2013-11-24 22:20:00,
2013-11-24 17:25:00,29.4,5.7,30.57,SSE,165,1.0,5.0,36,0.00,,,0.00,Wunderground v.1.15,2013-11-24 22:25:00,
2013-11-24 17:30:00,29.1,5.4,30.57,SW,226,1.0,5.0,36,0.00,,,0.00,Wunderground v.1.15,2013-11-24 22:30:00,
2013-11-24 17:35:00,28.9,5.2,30.57,South,171,1.0,5.0,36,0.00,,,0.00,Wunderground v.1.15,2013-11-24 22:35:00,
2013-11-24 17:40:00,28.7,5.7,30.57,South,171,1.0,5.0,37,0.00,,,0.00,Wunderground v.1.15,2013-11-24 22:40:00,
2013-11-24 17:45:00,28.5,5.5,30.58,South,178,1.0,1.0,37,0.00,,,0.00,Wunderground v.1.15,2013-11-24 22:45:00,
2013-11-24 17:50:00,28.4,5.4,30.58,SSW,196,2.0,5.0,37,0.00,,,0.00,Wunderground v.1.15,2013-11-24 22:50:00,
2013-11-24 17:55:00,28.2,5.2,30.58,SSW,192,3.0,5.0,37,0.00,,,0.00,Wunderground v.1.15,2013-11-24 22:55:00,
2013-11-24 18:05:00,27.9,6.1,30.58,SSW,195,3.0,5.0,39,0.00,,,0.00,Wunderground v.1.15,2013-11-24 23:05:00,
2013-11-24 18:10:00,27.7,7.0,30.58,SSW,196,4.0,5.0,41,0.00,,,0.00,Wunderground v.1.15,2013-11-24 23:10:00,
2013-11-24 18:15:00,27.5,6.3,30.58,South,179,4.0,5.0,40,0.00,,,0.00,Wunderground v.1.15,2013-11-24 23:15:00,
2013-11-24 18:20:00,27.3,6.1,30.59,SSW,206,4.0,5.0,40,0.00,,,0.00,Wunderground v.1.15,2013-11-24 23:20:00,
2013-11-24 18:25:00,27.2,6.0,30.59,SSW,206,3.0,3.0,40,0.00,,,0.00,Wunderground v.1.15,2013-11-24 23:25:00,
2013-11-24 18:30:00,27.0,6.4,30.60,SSW,206,1.0,5.0,41,0.00,,,0.00,Wunderground v.1.15,2013-11-24 23:30:00,
2013-11-24 18:35:00,26.8,6.2,30.60,SSW,206,0.0,5.0,41,0.00,,,0.00,Wunderground v.1.15,2013-11-24 23:35:00,
2013-11-24 18:40:00,26.7,6.1,30.60,SSW,206,0.0,5.0,41,0.00,,,0.00,Wunderground v.1.15,2013-11-24 23:40:00,
2013-11-24 18:45:00,26.5,5.9,30.61,SSW,206,1.0,1.0,41,0.00,,,0.00,Wunderground v.1.15,2013-11-24 23:45:00,
2013-11-24 18:50:00,26.4,5.8,30.61,SSE,161,1.0,5.0,41,0.00,,,0.00,Wunderground v.1.15,2013-11-24 23:50:00,
2013-11-24 18:55:00,26.3,5.8,30.61,SSE,162,1.0,5.0,41,0.00,,,0.00,Wunderground v.1.15,2013-11-24 23:55:00,
2013-11-24 19:05:00,26.1,6.6,30.62,SSE,162,0.0,5.0,43,0.00,,,0.00,Wunderground v.1.15,2013-11-25 00:05:00,
2013-11-24 19:10:00,25.9,5.9,30.62,SSE,162,0.0,5.0,42,0.00,,,0.00,Wunderground v.1.15,2013-11-25 00:10:00,
2013-11-24 19:15:00,25.8,6.3,30.62,SSE,162,0.0,5.0,43,0.00,,,0.00,Wunderground v.1.15,2013-11-25 00:15:00,
2013-11-24 19:20:00,25.7,6.3,30.62,SSE,162,0.0,5.0,43,0.00,,,0.00,Wunderground v.1.15,2013-11-25 00:20:00,
2013-11-24 19:25:00,25.6,6.2,30.63,SSE,162,0.0,5.0,43,0.00,,,0.00,Wunderground v.1.15,2013-11-25 00:25:00,
2013-11-24 19:30:00,25.5,6.6,30.63,SSE,162,0.0,5.0,44,0.00,,,0.00,Wunderground v.1.15,2013-11-25 00:30:00,
2013-11-24 19:35:00,25.4,7.0,30.63,SSE,162,0.0,5.0,45,0.00,,,0.00,Wunderground v.1.15,2013-11-25 00:35:00,
2013-11-24 19:40:00,25.3,5.9,30.64,SSE,162,0.0,5.0,43,0.00,,,0.00,Wunderground v.1.15,2013-11-25 00:40:00,
2013-11-24 19:45:00,25.2,6.3,30.64,SSE,162,1.0,1.0,44,0.00,,,0.00,Wunderground v.1.15,2013-11-25 00:45:00,
2013-11-24 19:50:00,25.2,6.3,30.64,SSE,162,0.0,5.0,44,0.00,,,0.00,Wunderground v.1.15,2013-11-25 00:50:00,
2013-11-24 19:55:00,25.1,6.2,30.64,SSE,162,0.0,5.0,44,0.00,,,0.00,Wunderground v.1.15,2013-11-25 00:55:00,
2013-11-24 20:05:00,24.9,7.0,30.64,SW,222,1.0,5.0,46,0.00,,,0.00,Wunderground v.1.15,2013-11-25 01:05:00,
2013-11-24 20:10:00,24.9,6.5,30.64,SW,222,0.0,5.0,45,0.00,,,0.00,Wunderground v.1.15,2013-11-25 01:10:00,
2013-11-24 20:15:00,24.8,7.9,30.64,SW,221,1.0,1.0,48,0.00,,,0.00,Wunderground v.1.15,2013-11-25 01:15:00,
2013-11-24 20:20:00,24.7,8.2,30.64,SW,221,0.0,5.0,49,0.00,,,0.00,Wunderground v.1.15,2013-11-25 01:20:00,
2013-11-24 20:25:00,24.6,6.7,30.64,SSE,152,0.0,5.0,46,0.00,,,0.00,Wunderground v.1.15,2013-11-25 01:25:00,
2013-11-24 20:30:00,24.7,6.8,30.64,SSE,152,0.0,5.0,46,0.00,,,0.00,Wunderground v.1.15,2013-11-25 01:30:00,
2013-11-24 20:35:00,24.7,6.8,30.64,SSE,152,0.0,5.0,46,0.00,,,0.00,Wunderground v.1.15,2013-11-25 01:35:00,
2013-11-24 20:40:00,24.7,8.2,30.64,SSE,152,0.0,5.0,49,0.00,,,0.00,Wunderground v.1.15,2013-11-25 01:40:00,
2013-11-24 20:45:00,24.6,6.7,30.63,SSE,152,0.0,5.0,46,0.00,,,0.00,Wunderground v.1.15,2013-11-25 01:45:00,
2013-11-24 20:50:00,24.5,6.2,30.63,SSE,152,0.0,5.0,45,0.00,,,0.00,Wunderground v.1.15,2013-11-25 01:50:00,
2013-11-24 20:55:00,24.5,6.6,30.63,SSE,152,0.0,5.0,46,0.00,,,0.00,Wunderground v.1.15,2013-11-25 01:55:00,
2013-11-24 21:05:00,24.4,7.0,30.63,SSE,152,0.0,5.0,47,0.00,,,0.00,Wunderground v.1.15,2013-11-25 02:05:00,
2013-11-24 21:10:00,24.4,7.0,30.63,SSE,152,0.0,5.0,47,0.00,,,0.00,Wunderground v.1.15,2013-11-25 02:10:00,
2013-11-24 21:15:00,24.4,7.0,30.63,SSE,152,0.0,5.0,47,0.00,,,0.00,Wunderground v.1.15,2013-11-25 02:15:00,
2013-11-24 21:20:00,24.3,6.9,30.63,SSE,152,0.0,5.0,47,0.00,,,0.00,Wunderground v.1.15,2013-11-25 02:20:00,
2013-11-24 21:25:00,24.2,6.4,30.63,SSE,152,0.0,5.0,46,0.00,,,0.00,Wunderground v.1.15,2013-11-25 02:25:00,
2013-11-24 21:30:00,24.1,6.7,30.63,SSE,152,0.0,5.0,47,0.00,,,0.00,Wunderground v.1.15,2013-11-25 02:30:00,
2013-11-24 21:35:00,24.0,7.6,30.63,SSE,152,0.0,5.0,49,0.00,,,0.00,Wunderground v.1.15,2013-11-25 02:35:00,
2013-11-24 21:40:00,23.8,6.9,30.63,SSE,152,0.0,5.0,48,0.00,,,0.00,Wunderground v.1.15,2013-11-25 02:40:00,
2013-11-24 21:45:00,23.7,6.8,30.62,SSE,152,0.0,5.0,48,0.00,,,0.00,Wunderground v.1.15,2013-11-25 02:45:00,
2013-11-24 21:50:00,23.6,6.8,30.63,SSE,152,1.0,5.0,48,0.00,,,0.00,Wunderground v.1.15,2013-11-25 02:50:00,
2013-11-24 21:55:00,23.5,7.1,30.62,SSE,152,1.0,1.0,49,0.00,,,0.00,Wunderground v.1.15,2013-11-25 02:55:00,
2013-11-24 22:05:00,23.3,8.7,30.63,SSE,152,0.0,5.0,53,0.00,,,0.00,Wunderground v.1.15,2013-11-25 03:05:00,
2013-11-24 22:10:00,23.1,8.5,30.63,SSE,152,0.0,5.0,53,0.00,,,0.00,Wunderground v.1.15,2013-11-25 03:10:00,
2013-11-24 22:15:00,23.0,7.1,30.63,SSE,152,0.0,5.0,50,0.00,,,0.00,Wunderground v.1.15,2013-11-25 03:15:00,
2013-11-24 22:20:00,22.9,8.7,30.63,SSE,152,0.0,5.0,54,0.00,,,0.00,Wunderground v.1.15,2013-11-25 03:20:00,
2013-11-24 22:25:00,22.9,7.4,30.64,SSE,152,0.0,5.0,51,0.00,,,0.00,Wunderground v.1.15,2013-11-25 03:25:00,
2013-11-24 22:30:00,22.9,7.9,30.64,SSE,152,0.0,5.0,52,0.00,,,0.00,Wunderground v.1.15,2013-11-25 03:30:00,
2013-11-24 22:35:00,22.9,7.9,30.64,SSE,152,0.0,5.0,52,0.00,,,0.00,Wunderground v.1.15,2013-11-25 03:35:00,
2013-11-24 22:40:00,22.9,7.4,30.64,SSE,152,0.0,5.0,51,0.00,,,0.00,Wunderground v.1.15,2013-11-25 03:40:00,
2013-11-24 22:45:00,22.8,7.8,30.64,SSE,152,0.0,5.0,52,0.00,,,0.00,Wunderground v.1.15,2013-11-25 03:45:00,
2013-11-24 22:50:00,22.9,7.4,30.64,SSE,152,0.0,5.0,51,0.00,,,0.00,Wunderground v.1.15,2013-11-25 03:50:00,
2013-11-24 22:55:00,22.9,8.7,30.64,SSE,152,0.0,5.0,54,0.00,,,0.00,Wunderground v.1.15,2013-11-25 03:55:00,
2013-11-24 23:05:00,22.9,7.9,30.64,SSE,152,0.0,5.0,52,0.00,,,0.00,Wunderground v.1.15,2013-11-25 04:05:00,
2013-11-24 23:10:00,22.9,8.3,30.64,SSE,152,0.0,5.0,53,0.00,,,0.00,Wunderground v.1.15,2013-11-25 04:10:00,
2013-11-24 23:15:00,22.9,8.3,30.64,SSE,152,0.0,5.0,53,0.00,,,0.00,Wunderground v.1.15,2013-11-25 04:15:00,
2013-11-24 23:20:00,23.2,4.5,30.64,SSE,152,0.0,5.0,44,0.00,,,0.00,Wunderground v.1.15,2013-11-25 04:20:00,
2013-11-24 23:25:00,23.6,3.3,30.65,SSE,152,0.0,5.0,41,0.00,,,0.00,Wunderground v.1.15,2013-11-25 04:25:00,
2013-11-24 23:30:00,24.0,4.7,30.65,SSE,152,0.0,5.0,43,0.00,,,0.00,Wunderground v.1.15,2013-11-25 04:30:00,
2013-11-24 23:35:00,24.0,4.7,30.64,SSE,152,0.0,5.0,43,0.00,,,0.00,Wunderground v.1.15,2013-11-25 04:35:00,
2013-11-24 23:40:00,24.0,6.2,30.65,SSE,152,0.0,5.0,46,0.00,,,0.00,Wunderground v.1.15,2013-11-25 04:40:00,
2013-11-24 23:45:00,24.0,5.7,30.65,SSE,152,0.0,5.0,45,0.00,,,0.00,Wunderground v.1.15,2013-11-25 04:45:00,
2013-11-24 23:50:00,23.9,6.6,30.65,SSE,152,0.0,5.0,47,0.00,,,0.00,Wunderground v.1.15,2013-11-25 04:50:00,
2013-11-24 23:55:00,23.9,6.1,30.65,SSE,152,0.0,5.0,46,0.00,,,0.00,Wunderground v.1.15,2013-11-25 04:55:00,